C/2019 B3 ( PanSTARRS )

Japanese version
Home page
Updated on April 4, 2021

---------------------------------------------------------------------

* Profile

Discovery Date January 24, 2019
Magnitude 19.6 mag
Discoverer Pan-STARRS 1 telescope (Haleakala)

* Pictures

* Orbital Elements

Epoch 2021 Jan. 26.0 TT = JDT 2459240.5
T 2021 Jan. 20.03242 TT                                 Rudenko
q   6.8230030            (2000.0)            P               Q
z  -0.0003652      Peri.  263.91224     -0.11687155     +0.99282827
 +/-0.0000025      Node   358.42824     +0.00237987     -0.02505452
e   1.0024919      Incl.   66.53618     -0.99314419     -0.11689441
From 117 observations 2019 Jan. 24-2021 Mar. 11, mean residual 0".6.

* Magnitudes Graph

        m1 = 5.5 + 5 log d + 10.0 log r

---------------------------------------------------------------------

The orbital elements are published on M.P.E.C. 2021-F20.
The magnitudes graphs are made with Comet for Windows.

---------------------------------------------------------------------

Copyright(C) Seiichi Yoshida (comet@aerith.net). All rights reserved.